This is the latest recevied weather packets stored in our database for station/object KC4GS-13. If no packets are shown the sender has not sent any weather packets the latest 10 day(s).
| Time | Temp. | Humidity | Pressure | Rain* | Wind** | Luminosity | Snow |
|---|---|---|---|---|---|---|---|
| 1787966490 | 25.56° C | 91% | 1018.2 hPa | 0 mm | - | 0 W/m² | - |
| 1787966184 | 26.11° C | 90% | 1018 hPa | 0 mm | - | 0 W/m² | - |
| 1787965879 | 26.11° C | 90% | 1018.6 hPa | 0 mm | - | 0 W/m² | - |
| 1787965574 | 26.11° C | 90% | 1018.2 hPa | 0 mm | - | 0 W/m² | - |
| 1787965269 | 26.11° C | 89% | 1018.6 hPa | 0 mm | - | 0 W/m² | - |
| 1787964969 | 26.11° C | 89% | 1018.3 hPa | 0 mm | - | 0 W/m² | - |
| 1787964669 | 26.11° C | 89% | 1018.1 hPa | 0 mm | - | 0 W/m² | - |
| 1787964369 | 26.67° C | 89% | 1018.4 hPa | 0 mm | - | 0 W/m² | - |
| 1787964068 | 26.67° C | 89% | 1018 hPa | 0 mm | - | 0 W/m² | - |
| 1787963763 | 26.67° C | 88% | 1018 hPa | 0 mm | - | 0 W/m² | - |
| 1787963458 | 26.67° C | 88% | 1017.8 hPa | 0 mm | - | 0 W/m² | - |
| 1787963153 | 26.67° C | 87% | 1017.8 hPa | 0 mm | - | 0 W/m² | - |
| 1787962851 | 26.67° C | 87% | 1017.8 hPa | 0 mm | - | 0 W/m² | - |
| 1787962550 | 26.67° C | 87% | 1017.8 hPa | 0 mm | - | 0 W/m² | - |
| 1787962249 | 27.22° C | 86% | 1017.5 hPa | 0 mm | - | 0 W/m² | - |
| 1787961944 | 27.22° C | 86% | 1017.7 hPa | 0 mm | - | 0 W/m² | - |
| 1787961639 | 27.78° C | 85% | 1017.7 hPa | 0 mm | - | 0 W/m² | - |
| 1787961332 | 27.78° C | 85% | 1018.2 hPa | 0 mm | - | 1 W/m² | - |
| 1787961027 | 27.78° C | 84% | 1018.3 hPa | 0 mm | - | 4 W/m² | - |
| 1787960721 | 28.33° C | 84% | 1018.3 hPa | 0 mm | - | 9 W/m² | - |
| 1787960421 | 28.33° C | 84% | 1018.3 hPa | 0 mm | - | 15 W/m² | - |
| 1787960115 | 28.33° C | 83% | 1018.3 hPa | 0 mm | - | 21 W/m² | - |
| 1787959810 | 28.33° C | 83% | 1018.1 hPa | 0 mm | - | 26 W/m² | - |
| 1787959500 | 28.33° C | 83% | 1018 hPa | 0 mm | - | 33 W/m² | - |
| 1787959194 | 28.33° C | 82% | 1018.1 hPa | 0 mm | - | 39 W/m² | - |
* Rain latest hour (hover to see other rain measurements)
** Current wind speed in m/s (hover to see current wind gust speed)